Moab, UT

11:29 AM MDT on September 19, 2017 (GMT -0600)
Canyonlands

Weather History for KCNY - July, 2014

Change the Weather History Date:

Wednesday, July 2, 2014

  Actual Average Record
Temperature  
Mean Temperature 82 °F 78 °F  
Max Temperature 99 °F 94 °F 109 °F (1953)
Min Temperature 65 °F 62 °F 47 °F (1989)
Degree Days  
Heating Degree Days 0 0  
Month to date heating degree days 0 0  
Since 1 June heating degree days 0 17  
Since 1 July heating degree days 0 0  
Cooling Degree Days 17 13  
Month to date cooling degree days 29 26  
Year to date cooling degree days 414 345  
Since 1 June cooling degree days 315 281  
Growing Degree Days 33 (Base 50)    
Moisture  
Dew Point 19 °F    
Average Humidity 10    
Maximum Humidity 14    
Minimum Humidity 6    
Precipitation  
Precipitation 0.00 in 0.02 in 0.16 in (1980)
Month to date precipitation 0.00 0.05  
Year to date precipitation 2.38 3.75  
Sea Level Pressure  
Sea Level Pressure 29.83 in    
Wind  
Wind Speed 5 mph (SW)    
Max Wind Speed 17 mph    
Max Gust Speed 21 mph    
Visibility 10 miles    
Events      
T = Trace of Precipitation, MM = Missing Value Source: NWS Daily Summary

Daily Weather History Graph

Daily Weather History Graph

Search for Another Location

Airport or City:

Trip Planner

Search our weather history database for the weather conditions in past years. The results will help you decide how hot, cold, wet, or windy it might be!

Date:

Astronomy

Jul. 02, 2014 Rise Set
Actual Time 5:58 AM MDT 8:47 PM MDT
Civil Twilight 5:26 AM MDT 9:19 PM MDT
Nautical Twilight 4:46 AM MDT 9:59 PM MDT
Astronomical Twilight 4:01 AM MDT 10:44 PM MDT
Moon 11:01 AM MDT (7/2) 11:45 PM MDT (7/2)
Length of Visible Light 15h 52m
Length of Day
14h 49m
Waxing Crescent, 25% of the Moon is Illuminated
Jul 2
Waxing Crescent
Jul 5
First Quarter
Jul 12
Full
Jul 18
Last Quarter
Jul 26
New

Hourly Weather History & Observations

Time (MDT) Temp. Dew Point Humidity Pressure Visibility Wind Dir Wind Speed Gust Speed Precip Events Conditions
12:53 AM 78.1 °F 16.0 °F 10% 29.79 in 10.0 mi Variable 5.8 mph - N/A   Clear
1:53 AM 75.9 °F 17.1 °F 11% 29.79 in 10.0 mi Calm Calm - N/A   Clear
2:53 AM 73.0 °F 17.1 °F 12% 29.79 in 10.0 mi East 5.8 mph - N/A   Clear
3:53 AM 70.0 °F 17.1 °F 13% 29.81 in 10.0 mi Calm Calm - N/A   Clear
4:53 AM 73.9 °F 17.1 °F 12% 29.81 in 10.0 mi SSE 4.6 mph - N/A   Clear
5:53 AM 69.1 °F 17.1 °F 14% 29.84 in 10.0 mi Variable 3.5 mph - N/A   Clear
6:53 AM 68.0 °F 18.0 °F 15% 29.86 in 10.0 mi SSW 3.5 mph - N/A   Clear
7:53 AM 75.0 °F 21.0 °F 13% 29.87 in 10.0 mi SSE 5.8 mph - N/A   Clear
8:53 AM 79.0 °F 21.0 °F 12% 29.88 in 10.0 mi SE 5.8 mph - N/A   Clear
9:53 AM 82.9 °F 21.9 °F 11% 29.88 in 10.0 mi East 10.4 mph - N/A   Clear
10:53 AM 86.0 °F 21.9 °F 10% 29.87 in 10.0 mi ENE 9.2 mph - N/A   Clear
11:53 AM 89.1 °F 19.9 °F 8% 29.86 in 10.0 mi Variable 5.8 mph - N/A   Clear
12:53 PM 91.0 °F 19.0 °F 7% 29.84 in 10.0 mi Calm Calm - N/A   Clear
1:53 PM 93.0 °F 19.0 °F 7% 29.83 in 10.0 mi Variable 6.9 mph - N/A   Clear
2:53 PM 96.8 °F 19.4 °F 6% 30.02 in 10.0 mi North 5.8 mph - N/A   Clear
3:53 PM 95.0 °F 21.0 °F 7% 29.79 in 10.0 mi Calm Calm - N/A   Clear
4:53 PM 98.6 °F 19.4 °F 6% 29.97 in 10.0 mi Variable 4.6 mph - N/A   Clear
5:53 PM 96.1 °F 21.0 °F 7% 29.75 in 10.0 mi West 8.1 mph 17.3 mph N/A   Clear
6:53 PM 93.9 °F 21.0 °F 7% 29.74 in 10.0 mi West 13.8 mph - N/A   Clear
7:53 PM 95.0 °F 19.9 °F 7% 29.73 in 10.0 mi West 10.4 mph - N/A   Clear
8:53 PM 87.1 °F 19.0 °F 8% 29.75 in 10.0 mi West 8.1 mph - N/A   Clear
9:53 PM 84.0 °F 21.0 °F 10% 29.77 in 10.0 mi WSW 3.5 mph - N/A   Clear
10:53 PM 82.0 °F 19.9 °F 10% 29.78 in 10.0 mi NNE 3.5 mph - N/A   Clear
11:53 PM 75.9 °F 21.0 °F 13% 29.79 in 10.0 mi Calm Calm - N/A   Clear